Pagina principale
METAR-TAF:

METAR-TAF

Aeroporti :

Monte Terminillo, Italia

latitudine: 42-28N, longitudine: 012-59E, altezza: 1874 m

Osservazione

Il bollettino è stato emesso 49 minuti fa, alle 22:55 UTC
Vento 10 kt da ovest, variando fra ovest/sud-ovest e nord-ovest
Temperature 3°C
Umidità 81%
Pressione 1015 hPa

METAR: LIRK 152255Z AUTO 28010KT 240V320 //// 03/00 Q1015

Ora: 01:44 (23:44 UTC)


TAF: mancante

Osservazioni e previsioni meteorologiche di più di 4000 aeroporti (messaggi METAR e TAF).

Le stazioni disponibili sono rappresentate dai dischi gialli e rossi sulla carta.

Puntare il mouse per vedere il nome della stazione.

Clicca sopra per visualizzare le osservazioni e previsioni meteorologiche.

Per cambiare la mappa : fare clic sui pulsanti verdi con una croce nera per ingrandire, il pulsante verde con un trattino per diminuire, o sulla freccia verde per le mappe adiacenti.


METAR-TAF: